TimeEST,TemperatureF,Dew PointF,Humidity,Sea Level PressureIn,VisibilityMPH,Wind Direction,Wind SpeedMPH,Gust SpeedMPH,PrecipitationIn,Events,Conditions,WindDirDegrees,DateUTC
12:58 AM,59.4,43.0,55,29.99,10.0,SSE,6.9,-,N/A,,Mostly Cloudy,150,2013-02-22 05:58:00
1:28 AM,60.8,44.6,55,29.98,10.0,SSE,4.6,-,N/A,,Overcast,160,2013-02-22 06:28:00
1:57 AM,60.8,46.4,59,29.97,10.0,SE,5.8,-,N/A,Rain,Light Rain,140,2013-02-22 06:57:00
1:58 AM,60.8,46.4,59,29.98,10.0,SE,5.8,-,N/A,Rain,Light Rain,140,2013-02-22 06:58:00
2:06 AM,60.8,46.4,59,29.97,10.0,SE,5.8,-,N/A,,Overcast,130,2013-02-22 07:06:00
2:55 AM,60.8,46.4,59,29.98,10.0,NE,3.5,-,N/A,Rain,Light Rain,40,2013-02-22 07:55:00
2:58 AM,61.3,46.4,58,29.99,10.0,NE,4.6,-,0.00,Rain,Light Rain,40,2013-02-22 07:58:00
3:06 AM,60.8,48.2,63,29.98,10.0,NE,2.3,-,N/A,,Overcast,40,2013-02-22 08:06:00
3:09 AM,60.8,48.2,63,29.98,10.0,NE,2.3,-,N/A,Rain,Light Rain,50,2013-02-22 08:09:00
3:21 AM,57.2,51.8,82,29.98,10.0,Calm,Calm,-,N/A,,Overcast,360,2013-02-22 08:21:00
3:44 AM,57.2,51.8,82,29.97,10.0,East,3.5,-,N/A,Rain,Light Rain,90,2013-02-22 08:44:00
3:54 AM,59.0,50.0,72,29.97,10.0,ENE,4.6,-,N/A,Rain,Light Rain,70,2013-02-22 08:54:00
3:58 AM,58.5,50.5,75,29.98,10.0,ENE,5.8,-,0.00,Rain,Light Rain,60,2013-02-22 08:58:00
4:00 AM,59.0,51.8,77,29.97,10.0,ENE,6.9,-,N/A,,Overcast,60,2013-02-22 09:00:00
4:05 AM,57.2,51.8,82,29.97,10.0,ENE,5.8,-,N/A,,Overcast,60,2013-02-22 09:05:00
4:15 AM,59.0,50.0,72,29.96,10.0,East,9.2,-,N/A,,Overcast,80,2013-02-22 09:15:00
4:20 AM,59.0,48.2,67,29.96,10.0,East,9.2,-,N/A,,Overcast,80,2013-02-22 09:20:00
4:35 AM,59.0,50.0,72,29.95,10.0,East,9.2,-,N/A,,Overcast,80,2013-02-22 09:35:00
4:40 AM,59.0,50.0,72,29.96,10.0,East,10.4,-,N/A,,Overcast,80,2013-02-22 09:40:00
4:45 AM,59.0,50.0,72,29.95,10.0,East,8.1,-,N/A,,Overcast,80,2013-02-22 09:45:00
4:58 AM,58.3,50.4,75,29.96,10.0,East,6.9,-,0.00,,Overcast,80,2013-02-22 09:58:00
5:17 AM,59.0,50.0,72,29.96,10.0,North,10.4,-,N/A,Rain-Thunderstorm,Light Rain,360,2013-02-22 10:17:00
5:22 AM,59.0,51.8,77,29.97,9.0,North,15.0,-,N/A,Rain-Thunderstorm,Light Rain,10,2013-02-22 10:22:00
5:26 AM,57.2,51.8,82,29.98,7.0,North,16.1,-,N/A,Rain,Light Rain,10,2013-02-22 10:26:00
5:27 AM,57.2,51.8,82,29.98,6.0,North,16.1,-,N/A,Rain,Light Rain,10,2013-02-22 10:27:00
5:32 AM,55.4,51.8,88,29.98,4.0,NNE,13.8,-,N/A,Rain,Heavy Rain,20,2013-02-22 10:32:00
5:42 AM,53.6,50.0,88,29.97,5.0,NNE,13.8,-,N/A,Rain,Light Rain,20,2013-02-22 10:42:00
5:47 AM,51.8,50.0,94,29.98,8.0,NNE,13.8,-,N/A,Rain,Light Rain,30,2013-02-22 10:47:00
5:51 AM,51.8,50.0,94,29.98,10.0,North,16.1,-,N/A,Rain,Light Rain,350,2013-02-22 10:51:00
5:52 AM,51.8,50.0,94,29.98,10.0,NNW,17.3,-,N/A,Rain,Light Rain,330,2013-02-22 10:52:00
5:57 AM,51.8,50.0,94,30.04,6.0,North,19.6,25.3,N/A,Rain,Light Rain,350,2013-02-22 10:57:00
5:58 AM,51.8,49.5,92,30.05,6.0,North,18.4,25.3,0.24,Rain,Light Rain,360,2013-02-22 10:58:00
6:03 AM,51.8,48.2,88,30.01,3.0,North,19.6,26.5,N/A,Rain,Heavy Rain,360,2013-02-22 11:03:00
6:13 AM,50.0,48.2,94,30.03,7.0,North,15.0,-,N/A,Rain,Heavy Rain,360,2013-02-22 11:13:00
6:21 AM,50.0,48.2,94,30.05,5.0,NE,13.8,-,N/A,Rain,Heavy Rain,40,2013-02-22 11:21:00
6:26 AM,50.0,48.2,94,30.02,2.0,ENE,16.1,-,N/A,Rain,Heavy Rain,60,2013-02-22 11:26:00
6:30 AM,50.0,48.2,94,30.02,2.0,East,18.4,24.2,N/A,Rain,Light Rain,80,2013-02-22 11:30:00
6:35 AM,50.0,48.2,94,30.02,4.0,ENE,13.8,24.2,N/A,Rain,Light Rain,70,2013-02-22 11:35:00
6:36 AM,50.0,48.2,94,30.02,5.0,ENE,13.8,24.2,N/A,Rain-Thunderstorm,Light Thunderstorms and Rain,60,2013-02-22 11:36:00
6:41 AM,50.0,48.2,94,30.02,4.0,ENE,10.4,20.7,N/A,Rain-Thunderstorm,Heavy Thunderstorms and Rain,60,2013-02-22 11:41:00
6:46 AM,50.0,48.2,94,30.02,2.0,ENE,11.5,20.7,N/A,Rain-Thunderstorm,Heavy Thunderstorms and Rain,60,2013-02-22 11:46:00
6:51 AM,50.0,48.2,94,30.01,2.5,NE,11.5,18.4,N/A,Rain,Rain,50,2013-02-22 11:51:00
6:53 AM,50.0,48.2,94,30.01,3.0,ENE,10.4,-,N/A,Rain-Thunderstorm,Thunderstorms and Rain,60,2013-02-22 11:53:00
6:58 AM,49.1,48.0,96,30.04,4.0,ENE,9.2,-,0.81,Rain-Thunderstorm,Thunderstorms and Rain,60,2013-02-22 11:58:00
7:08 AM,48.2,48.2,100,30.04,2.5,ENE,10.4,-,N/A,Rain-Thunderstorm,Heavy Thunderstorms and Rain,70,2013-02-22 12:08:00
7:10 AM,48.2,48.2,100,30.03,2.5,East,11.5,-,N/A,Rain,Rain,80,2013-02-22 12:10:00
7:15 AM,48.2,48.2,100,30.03,2.5,East,11.5,-,N/A,Rain,Heavy Rain,80,2013-02-22 12:15:00
7:20 AM,48.2,48.2,100,30.03,3.0,ENE,10.4,18.4,N/A,Rain,Rain,60,2013-02-22 12:20:00
7:25 AM,48.2,48.2,100,30.03,4.0,ENE,8.1,18.4,N/A,Rain,Light Rain,70,2013-02-22 12:25:00
7:30 AM,48.2,48.2,100,30.04,6.0,ENE,8.1,-,N/A,Rain,Light Rain,70,2013-02-22 12:30:00
7:58 AM,49.5,48.9,98,30.04,9.0,ENE,6.9,-,0.34,Rain,Light Rain,70,2013-02-22 12:58:00
8:41 AM,50.0,50.0,100,30.05,8.0,NNE,4.6,-,N/A,Rain-Thunderstorm,Light Thunderstorms and Rain,30,2013-02-22 13:41:00
8:56 AM,50.0,50.0,100,30.06,10.0,NE,4.6,-,N/A,Rain,Light Rain,40,2013-02-22 13:56:00
8:58 AM,50.0,50.0,100,30.07,10.0,NE,4.6,-,0.02,Rain,Light Rain,40,2013-02-22 13:58:00
9:23 AM,50.0,50.0,100,30.05,10.0,NNE,8.1,-,N/A,,Overcast,30,2013-02-22 14:23:00
9:58 AM,52.2,51.3,97,30.05,10.0,East,8.1,-,0.01,,Overcast,80,2013-02-22 14:58:00
10:43 AM,53.6,51.8,94,30.06,10.0,NE,8.1,-,N/A,,Overcast,40,2013-02-22 15:43:00
10:58 AM,54.0,51.6,92,30.07,10.0,ENE,10.4,-,N/A,,Overcast,60,2013-02-22 15:58:00
11:34 AM,53.6,51.8,94,30.05,10.0,ENE,9.2,-,N/A,Rain,Light Rain,70,2013-02-22 16:34:00
11:49 AM,53.6,51.8,94,30.07,6.0,NE,6.9,-,N/A,Rain,Light Rain,40,2013-02-22 16:49:00
11:58 AM,53.4,51.4,93,30.08,10.0,NNE,8.1,-,0.00,,Light Drizzle,30,2013-02-22 16:58:00
12:21 PM,53.6,51.8,94,30.07,10.0,ENE,8.1,-,N/A,,Overcast,60,2013-02-22 17:21:00
12:31 PM,53.6,51.8,94,30.07,10.0,NE,6.9,-,N/A,,Overcast,40,2013-02-22 17:31:00
12:51 PM,53.6,51.8,94,30.06,10.0,NE,6.9,-,N/A,,Overcast,40,2013-02-22 17:51:00
12:58 PM,52.7,51.1,94,30.07,8.0,NNE,5.8,-,0.01,,Overcast,30,2013-02-22 17:58:00
12:59 PM,51.8,51.8,100,30.06,7.0,NNE,6.9,-,N/A,,Overcast,30,2013-02-22 17:59:00
1:04 PM,51.8,50.0,94,30.06,6.0,NE,10.4,-,N/A,,Overcast,40,2013-02-22 18:04:00
1:14 PM,51.8,51.8,100,30.05,6.0,NE,11.5,-,N/A,,Overcast,40,2013-02-22 18:14:00
1:19 PM,51.8,51.8,100,30.05,5.0,NE,9.2,-,N/A,,Overcast,40,2013-02-22 18:19:00
1:39 PM,51.8,50.0,94,30.05,10.0,NE,8.1,-,N/A,,Overcast,50,2013-02-22 18:39:00
1:58 PM,52.0,50.4,94,30.04,10.0,NE,11.5,-,N/A,,Overcast,50,2013-02-22 18:58:00
2:58 PM,51.6,49.8,94,30.03,10.0,ENE,11.5,-,N/A,,Overcast,60,2013-02-22 19:58:00
3:28 PM,51.8,50.0,94,30.01,6.0,Variable,6.9,-,N/A,,Overcast,0,2013-02-22 20:28:00
3:53 PM,50.0,50.0,100,30.02,2.5,ENE,8.1,-,N/A,,Overcast,60,2013-02-22 20:53:00
3:58 PM,50.9,50.0,97,30.03,2.5,ENE,6.9,-,N/A,,Overcast,60,2013-02-22 20:58:00
4:28 PM,50.0,50.0,100,30.01,3.0,ENE,5.8,-,N/A,,Overcast,70,2013-02-22 21:28:00
4:58 PM,50.9,50.0,97,30.01,7.0,NE,9.2,-,N/A,,Overcast,50,2013-02-22 21:58:00
5:08 PM,50.0,50.0,100,30.00,10.0,NE,6.9,-,N/A,,Overcast,40,2013-02-22 22:08:00
5:25 PM,50.0,50.0,100,30.01,10.0,NE,8.1,-,N/A,Rain,Light Rain,40,2013-02-22 22:25:00
5:56 PM,50.4,49.6,97,30.04,10.0,North,11.5,-,0.03,Rain,Light Rain,360,2013-02-22 22:56:00
6:58 PM,49.1,48.9,99,30.00,10.0,NNE,8.1,-,0.10,Rain,Light Rain,30,2013-02-22 23:58:00
7:13 PM,50.0,48.2,94,30.03,1.5,Variable,5.8,-,N/A,Rain,Heavy Rain,0,2013-02-23 00:13:00
7:19 PM,48.2,48.2,100,30.02,1.8,NNE,6.9,-,N/A,Rain,Heavy Rain,20,2013-02-23 00:19:00
7:22 PM,48.2,48.2,100,30.02,2.0,NE,8.1,-,N/A,Rain,Heavy Rain,40,2013-02-23 00:22:00
7:26 PM,48.2,48.2,100,30.01,4.0,NE,6.9,-,N/A,Rain,Light Rain,50,2013-02-23 00:26:00
7:27 PM,48.2,48.2,100,30.02,4.0,NE,6.9,-,N/A,Rain,Light Rain,50,2013-02-23 00:27:00
7:31 PM,48.2,48.2,100,30.02,7.0,NE,8.1,-,N/A,Rain,Light Rain,40,2013-02-23 00:31:00
7:36 PM,48.2,48.2,100,30.01,10.0,NE,6.9,-,N/A,Rain,Light Rain,40,2013-02-23 00:36:00
7:41 PM,48.2,48.2,100,30.00,10.0,NE,6.9,-,N/A,Rain,Light Rain,40,2013-02-23 00:41:00
7:42 PM,48.2,48.2,100,30.00,10.0,NE,6.9,-,N/A,,Overcast,40,2013-02-23 00:42:00
7:43 PM,48.2,48.2,100,30.00,10.0,NE,6.9,-,N/A,Rain,Light Rain,40,2013-02-23 00:43:00
7:55 PM,48.2,48.2,100,30.01,10.0,Variable,6.9,-,N/A,,Overcast,0,2013-02-23 00:55:00
7:58 PM,48.7,48.4,99,30.06,10.0,WNW,23.0,26.5,0.28,,Overcast,290,2013-02-23 00:58:00
8:02 PM,48.2,48.2,100,30.10,10.0,NNW,15.0,32.2,N/A,,Overcast,340,2013-02-23 01:02:00
8:03 PM,48.2,48.2,100,30.10,10.0,NNE,13.8,32.2,N/A,,Overcast,20,2013-02-23 01:03:00
8:04 PM,48.2,48.2,100,30.08,10.0,ENE,20.7,32.2,N/A,Rain,Light Rain,70,2013-02-23 01:04:00
8:09 PM,50.0,48.2,94,29.97,3.0,NNW,10.4,32.2,N/A,Rain,Heavy Rain,340,2013-02-23 01:09:00
8:11 PM,50.0,48.2,94,30.02,3.0,NW,13.8,31.1,N/A,Rain,Heavy Rain,310,2013-02-23 01:11:00
8:19 PM,50.0,48.2,94,30.07,9.0,Variable,5.8,17.3,N/A,Rain,Light Rain,0,2013-02-23 01:19:00
8:24 PM,50.0,48.2,94,30.05,10.0,North,10.4,-,N/A,Rain,Rain,10,2013-02-23 01:24:00
8:29 PM,50.0,48.2,94,30.05,10.0,NNE,10.4,-,N/A,Rain,Light Rain,20,2013-02-23 01:29:00
8:44 PM,50.0,48.2,94,30.05,10.0,NE,5.8,-,N/A,Rain,Light Rain,40,2013-02-23 01:44:00
8:58 PM,49.1,48.4,97,30.04,10.0,ENE,8.1,-,0.12,Rain,Light Rain,60,2013-02-23 01:58:00
9:08 PM,50.0,48.2,94,30.02,10.0,NE,8.1,-,N/A,Rain,Light Rain,50,2013-02-23 02:08:00
9:23 PM,50.0,48.2,94,30.02,10.0,ENE,6.9,-,N/A,Rain,Light Rain,70,2013-02-23 02:23:00
9:24 PM,48.2,48.2,100,30.02,10.0,East,8.1,-,N/A,,Overcast,80,2013-02-23 02:24:00
9:58 PM,48.4,47.1,95,30.01,10.0,Variable,6.9,-,0.02,,Overcast,0,2013-02-23 02:58:00
10:13 PM,48.2,46.4,93,30.01,10.0,NE,5.8,-,N/A,,Overcast,40,2013-02-23 03:13:00
10:43 PM,48.2,46.4,93,30.02,10.0,NE,4.6,-,N/A,,Overcast,40,2013-02-23 03:43:00
10:48 PM,48.2,46.4,93,30.01,10.0,NE,3.5,-,N/A,,Overcast,40,2013-02-23 03:48:00
10:53 PM,48.2,46.4,93,30.02,10.0,ENE,4.6,-,N/A,,Overcast,60,2013-02-23 03:53:00
10:58 PM,48.6,46.9,94,30.02,10.0,NE,3.5,-,N/A,,Overcast,50,2013-02-23 03:58:00
11:13 PM,48.2,46.4,93,29.99,10.0,NNE,5.8,-,N/A,,Overcast,30,2013-02-23 04:13:00
11:23 PM,48.2,46.4,93,29.99,10.0,NE,5.8,-,N/A,,Overcast,40,2013-02-23 04:23:00
11:32 PM,48.2,46.4,93,29.97,9.0,ENE,4.6,-,N/A,Rain,Light Rain,60,2013-02-23 04:32:00
11:42 PM,48.2,48.2,100,29.97,10.0,NNE,2.3,-,N/A,Rain,Light Rain,30,2013-02-23 04:42:00
11:45 PM,48.2,48.2,100,29.97,10.0,NE,3.5,-,N/A,Rain,Light Rain,40,2013-02-23 04:45:00
11:50 PM,48.2,46.4,93,29.96,8.0,NE,4.6,-,N/A,Rain,Light Rain,40,2013-02-23 04:50:00
11:58 PM,48.2,48.2,100,29.97,6.0,NNE,4.6,-,0.04,Rain,Light Rain,20,2013-02-23 04:58:00